FW9692 Weather Reports


time (UTC)temp
F
wind
direction
speed
knots
gust
knots
rain 1hr
in
rain 24hr
in
rain mn
in
humidity
%
barometer
mb
20260508021512 69 140 13.0 16.5 0.00 0.00 0.00 51 1003.0
20260508020011 70 139 13.9 19.1 0.00 0.00 0.00 50 1002.8
20260508014603 70 142 12.2 19.1 0.00 0.00 0.00 49 1002.7
20260508013001 71 135 14.8 18.2 0.00 0.00 0.00 47 1002.6
20260508011600 71 131 13.0 17.4 0.00 0.00 0.00 46 1002.5
20260508011502 71 137 12.2 17.4 0.00 0.00 0.00 45 1002.5
20260508010059 72 139 14.8 19.1 0.00 0.00 0.00 45 1002.5
20260508004523 73 128 8.7 13.9 0.00 0.00 0.00 45 1002.4
20260508003018 73 150 11.3 16.5 0.00 0.00 0.00 44 1002.7
20260508001517 73 121 9.6 14.8 0.00 0.00 0.00 44 1002.6
20260508000017 73 137 7.0 13.0 0.00 0.00 0.00 44 1002.4
20260507234528 73 113 5.2 14.8 0.00 0.00 0.00 44 1002.5
20260507233018 73 134 10.4 16.5 0.00 0.00 0.00 44 1002.4
20260507231511 73 137 7.8 14.8 0.00 0.00 0.00 43 1002.6
20260507230015 72 142 10.4 15.6 0.00 0.00 0.00 44 1002.7
20260507224507 72 109 8.7 20.0 0.00 0.00 0.00 43 1003.0
20260507223007 72 119 7.8 13.0 0.00 0.00 0.00 42 1003.1
20260507221559 72 171 7.0 13.9 0.00 0.00 0.00 43 1003.3
20260507220057 71 134 9.6 14.8 0.00 0.00 0.00 45 1003.4
20260507214505 71 141 8.7 13.0 0.00 0.00 0.00 45 1003.6
20260507213002 70 144 4.3 15.6 0.00 0.00 0.00 45 1004.0
20260507211603 69 132 5.2 12.2 0.00 0.00 0.00 46 1004.5
20260507210113 68 101 3.5 7.0 0.00 0.00 0.00 48 1004.6
20260507204546 67 135 1.7 10.4 0.00 0.00 0.00 49 1004.8
20260507203040 67 161 2.6 10.4 0.00 0.00 0.00 49 1004.9
20260507201539 67 130 5.2 14.8 0.00 0.00 0.00 50 1005.1
20260507200046 65 87 9.6 14.8 0.00 0.00 0.00 52 1005.4
20260507194511 65 78 5.2 10.4 0.00 0.00 0.00 53 1005.8
20260507193002 64 108 7.8 11.3 0.00 0.00 0.00 54 1006.1
20260507191603 63 85 2.6 13.9 0.00 0.00 0.00 55 1006.3
20260507191501 63 296 4.3 13.9 0.00 0.00 0.00 54 1006.2
20260507190110 62 221 3.5 10.4 0.00 0.00 0.00 57 1006.6
20260507184553 62 30 1.7 13.0 0.00 0.00 0.00 58 1006.9
20260507183111 62 33 4.3 8.7 0.00 0.00 0.00 59 1007.1
20260507181556 61 104 2.6 7.0 0.00 0.00 0.00 60 1007.3
20260507180052 60 90 5.2 11.3 0.00 0.00 0.00 61 1007.6
20260507174536 60 107 3.5 9.6 0.00 0.00 0.00 61 1008.0
20260507173045 59 90 3.5 9.6 0.00 0.00 0.00 61 1008.1
20260507171533 58 63 5.2 9.6 0.00 0.00 0.00 63 1008.3
20260507170033 58 67 4.3 11.3 0.00 0.00 0.00 64 1008.4
20260507164544 57 51 8.7 13.9 0.00 0.00 0.00 64 1008.6
20260507163032 56 56 7.0 11.3 0.00 0.00 0.00 65 1008.8
20260507161542 56 82 7.8 12.2 0.00 0.00 0.00 65 1008.9
20260507160031 56 65 5.2 12.2 0.00 0.00 0.00 66 1008.9
20260507154528 56 80 6.1 10.4 0.00 0.00 0.00 66 1009.1
20260507153034 55 57 8.7 12.2 0.00 0.00 0.00 66 1009.0
20260507151526 55 79 9.6 13.0 0.00 0.00 0.00 66 1009.0
20260507150031 55 79 8.7 11.3 0.00 0.00 0.00 66 1009.0
20260507144530 55 67 9.6 14.8 0.00 0.00 0.00 66 1009.1
20260507143025 55 79 9.6 13.9 0.00 0.00 0.00 66 1009.1
20260507141521 55 87 9.6 13.0 0.00 0.00 0.00 66 1009.1
20260507140021 55 90 9.6 13.0 0.00 0.00 0.00 67 1009.1
20260507134513 55 76 11.3 14.8 0.00 0.00 0.00 67 1009.1
20260507133010 55 61 12.2 14.8 0.00 0.00 0.00 67 1008.9
20260507131517 55 42 11.3 14.8 0.00 0.00 0.00 67 1008.7
20260507130007 55 44 11.3 15.6 0.00 0.00 0.00 66 1008.5
20260507124513 55 31 12.2 14.8 0.00 0.00 0.00 65 1008.1
20260507123006 55 36 10.4 13.9 0.00 0.00 0.00 64 1008.0
20260507121510 54 22 10.4 13.9 0.00 0.00 0.00 63 1007.8
20260507120006 53 347 10.4 14.8 0.00 0.00 0.00 62 1007.5
20260507114609 53 13 9.6 13.0 0.00 0.00 0.00 62 1007.2
20260507113125 52 13 9.6 13.9 0.00 0.00 0.00 62 1007.0
20260507111557 53 11 12.2 18.2 0.00 0.00 0.00 60 1006.9
20260507110051 53 346 13.0 18.2 0.00 0.00 0.00 60 1006.6
20260507104545 53 11 16.5 20.9 0.00 0.00 0.00 59 1006.5
20260507103049 53 351 14.8 20.9 0.00 0.00 0.00 58 1006.4
20260507101542 53 13 14.8 19.1 0.00 0.00 0.00 58 1006.2
20260507100038 54 15 14.8 19.1 0.00 0.00 0.00 57 1006.0
20260507094549 54 20 16.5 20.9 0.00 0.00 0.00 57 1006.0
20260507093049 54 30 16.5 23.5 0.00 0.00 0.00 56 1005.7
20260507091547 54 23 17.4 23.5 0.00 0.00 0.00 56 1005.4
20260507090042 55 348 18.2 25.2 0.00 0.00 0.00 56 1005.0
20260507084544 55 351 20.9 26.9 0.00 0.00 0.00 55 1004.7
20260507083036 56 11 22.6 31.3 0.00 0.00 0.00 54 1005.0
20260507081539 57 344 17.4 20.0 0.00 0.00 0.00 53 1005.1
20260507080030 57 348 18.2 25.2 0.00 0.00 0.00 52 1004.8
20260507074531 58 24 17.4 22.6 0.00 0.00 0.00 50 1004.9
20260507073025 61 344 20.9 26.9 0.00 0.00 0.00 43 1004.7
20260507071519 69 36 5.2 7.8 0.00 0.00 0.00 26 1003.6
20260507070017 68 191 1.7 6.1 0.00 0.00 0.00 28 1003.4
20260507064514 71 294 4.3 5.2 0.00 0.00 0.00 23 1003.3
20260507063016 71 303 2.6 6.1 0.00 0.00 0.00 23 1003.2
20260507061513 70 291 3.5 6.1 0.00 0.00 0.00 25 1002.9
20260507060011 71 298 3.5 7.0 0.00 0.00 0.00 23 1002.8
20260507054510 72 257 6.1 7.8 0.00 0.00 0.00 23 1002.7
20260507053010 73 273 7.0 9.6 0.00 0.00 0.00 21 1002.7
20260507051510 72 255 4.3 6.1 0.00 0.00 0.00 21 1002.7
20260507050014 74 298 6.1 7.0 0.00 0.00 0.00 21 1002.7
20260507044512 74 310 5.2 7.0 0.00 0.00 0.00 21 1002.5
20260507043019 75 310 4.3 6.1 0.00 0.00 0.00 20 1002.3
20260507041510 75 323 5.2 7.8 0.00 0.00 0.00 19 1002.1
20260507040008 73 9 2.6 5.2 0.00 0.00 0.00 21 1002.1
20260507034532 73 15 0.9 3.5 0.00 0.00 0.00 22 1001.9
20260507033024 73 150 1.7 5.2 0.00 0.00 0.00 23 1001.7
20260507031524 73 300 7.8 10.4 0.00 0.00 0.00 21 1001.4
20260507030024 73 302 8.7 10.4 0.00 0.00 0.00 22 1001.2
20260507024519 74 305 8.7 10.4 0.00 0.00 0.00 21 1000.9
20260507023015 74 298 10.4 13.0 0.00 0.00 0.00 21 1000.7